Location: Berkeley
(37.8716°N, 122.2727°W)
Time: 15:03:21
(UTC-08:00)

Envisat - Visible Passes

Search period start: 16 December 2018 00:00
Search period end: 26 December 2018 00:00
Orbit: 764 x 766 km, 98.2° (Epoch: 16 December)

Date Brightness Start Highest point End Pass type
(mag) Time Alt. Az. Time Alt. Az. Time Alt. Az.
16 Dec 3.4 18:21:33 10° SE 18:26:10 36° ENE 18:30:48 10° N visible
16 Dec 5.1 20:01:13 10° SSW 20:05:14 24° W 20:09:16 10° NW visible
17 Dec 6.0 06:33:39 10° ENE 06:36:19 14° E 06:38:58 10° ESE visible
17 Dec 4.3 17:46:36 10° ESE 17:49:47 17° ENE 17:52:57 10° NNE visible
17 Dec 3.6 19:23:22 10° S 19:28:19 54° W 19:33:18 10° NNW visible
18 Dec 2.9 18:46:35 10° SSE 18:51:36 65° ENE 18:56:38 10° N visible
18 Dec 5.9 20:28:48 10° WSW 20:31:01 13° W 20:33:15 10° WNW visible
19 Dec 3.7 18:10:44 10° SE 18:15:03 29° ENE 18:19:23 10° N visible
19 Dec 4.7 19:49:33 10° SSW 19:53:58 30° W 19:58:25 10° NW visible
20 Dec 6.4 06:23:53 10° ENE 06:25:00 11° E 06:26:06 10° ESE visible
20 Dec 4.6 17:36:21 10° E 17:38:43 13° ENE 17:41:06 10° NE visible
20 Dec 3.2 19:12:03 10° S 19:17:06 70° WSW 19:22:11 10° NNW visible
21 Dec 3.1 18:35:33 10° SSE 18:40:26 51° ENE 18:45:21 10° N visible
21 Dec 5.6 20:16:31 10° SW 20:19:42 17° W 20:22:55 10° NW visible
22 Dec 5.8 06:47:05 10° NE 06:50:49 20° E 06:54:30 10° SE visible
22 Dec 4.0 18:00:02 10° ESE 18:03:57 23° ENE 18:07:54 10° NNE visible
22 Dec 4.3 19:38:01 10° SSW 19:42:42 38° W 19:47:27 10° NNW visible
23 Dec 4.8 17:26:53 10° ENE 17:27:41 10° ENE 17:28:29 10° NE visible
23 Dec 2.9 19:00:50 10° SSE 19:05:54 89° WSW 19:11:01 10° NNW visible
24 Dec 3.3 18:24:35 10° SE 18:29:18 40° ENE 18:34:01 10° N visible
24 Dec 5.3 20:04:36 10° SW 20:08:25 21° W 20:12:16 10° NW visible
25 Dec 5.9 06:36:29 10° NE 06:39:30 16° E 06:42:31 10° SE visible
25 Dec 4.3 17:49:27 10° ESE 17:52:52 19° ENE 17:56:18 10° NNE visible
25 Dec 3.8 19:26:35 10° S 19:31:28 49° W 19:36:24 10° NNW visible
